EW3330 Weather Reports


time (UTC)temp
F
wind
direction
speed
knots
gust
knots
rain 1hr
in
rain 24hr
in
rain mn
in
humidity
%
barometer
mb
20260504044527 43 50 0.0 0.0 0.00 0.00 0.00 75 1011.6
20260504043035 43 50 0.0 0.0 0.00 0.00 0.00 74 1011.5
20260504041524 43 50 0.0 1.7 0.00 0.00 0.00 73 1011.3
20260504040024 43 50 0.0 0.0 0.00 0.00 0.00 73 1011.1
20260504034520 44 50 0.0 1.7 0.00 0.00 0.00 72 1011.1
20260504033019 44 50 0.0 0.0 0.00 0.00 0.00 71 1011.2
20260504031518 44 50 0.0 0.0 0.00 0.00 0.00 69 1011.2
20260504030024 45 50 0.0 0.0 0.00 0.00 0.00 67 1011.1
20260504024515 46 50 0.0 0.0 0.00 0.00 0.00 64 1011.1
20260504023014 47 50 0.0 0.0 0.00 0.00 0.00 61 1011.2
20260504021514 47 50 0.0 0.0 0.00 0.00 0.00 58 1011.1
20260504020013 48 50 0.0 0.0 0.00 0.00 0.00 56 1011.2
20260504014518 49 50 0.0 0.0 0.00 0.00 0.00 53 1011.1
20260504013029 50 50 0.0 0.0 0.00 0.00 0.00 52 1010.9
20260504011512 51 50 0.0 0.0 0.00 0.00 0.00 48 1010.8
20260504010010 52 50 0.0 0.0 0.00 0.00 0.00 43 1010.6
20260504004510 53 50 0.0 0.0 0.00 0.00 0.00 42 1010.4
20260504003009 54 50 0.0 1.7 0.00 0.00 0.00 40 1010.3
20260504001509 55 50 0.0 1.7 0.00 0.00 0.00 40 1010.0
20260504000008 56 25 0.0 1.7 0.00 0.00 0.00 36 1009.8
20260503234509 57 89 0.0 3.5 0.00 0.00 0.00 36 1009.6
20260503233014 57 123 0.0 4.3 0.00 0.00 0.00 37 1009.5
20260503231507 58 85 0.0 2.6 0.00 0.00 0.00 35 1009.3
20260503230006 58 4 0.0 2.6 0.00 0.00 0.00 34 1009.2
20260503224506 58 140 0.9 7.0 0.00 0.00 0.00 31 1009.1
20260503223006 58 42 0.0 7.0 0.00 0.00 0.00 31 1009.0
20260503221506 59 31 0.9 8.7 0.00 0.00 0.00 31 1009.1
20260503220004 58 131 0.9 4.3 0.00 0.00 0.00 30 1009.1
20260503214503 58 47 2.6 8.7 0.00 0.00 0.00 29 1009.1
20260503213007 59 131 1.7 8.7 0.00 0.00 0.00 29 1009.1
20260503211503 60 11 0.9 9.6 0.00 0.00 0.00 29 1009.0
20260503204600 59 352 0.9 8.7 0.00 0.00 0.00 30 1009.1
20260503203114 59 54 3.5 13.0 0.00 0.00 0.00 28 1008.9
20260503201557 58 67 0.9 8.7 0.00 0.00 0.00 31 1009.2
20260503200054 57 144 2.6 8.7 0.00 0.00 0.00 30 1009.2
20260503194552 56 60 2.6 11.3 0.00 0.00 0.00 31 1009.4
20260503193054 57 38 2.6 12.2 0.00 0.00 0.00 33 1009.6
20260503191553 57 54 0.9 7.0 0.00 0.00 0.00 32 1009.7
20260503190057 57 17 1.7 9.6 0.00 0.00 0.00 33 1009.8
20260503184548 57 81 2.6 11.3 0.00 0.00 0.00 33 1009.9
20260503183047 56 48 1.7 8.7 0.00 0.00 0.00 32 1009.9
20260503181554 56 19 3.5 12.2 0.00 0.00 0.00 35 1010.0
20260503180051 55 347 2.6 8.7 0.00 0.00 0.00 34 1010.1
20260503174543 55 1 0.9 11.3 0.00 0.00 0.00 38 1010.3
20260503173038 53 129 1.7 11.3 0.00 0.00 0.00 37 1010.3
20260503171537 53 58 2.6 9.6 0.00 0.00 0.00 38 1010.6
20260503081557 44 342 0.0 9.6 0.00 0.02 0.00 55 1009.6
20260503071540 45 357 0.0 3.5 0.00 0.02 0.00 56 1009.4